Hourly Data Report for May 22, 2019

MIRAMICHI RCS
NEW BRUNSWICK
Current Station Operator: ECCC - MSC

47°00'34.000" N
65°27'54.000" W
33.00 m
8100989
71744
ACQ

Download Data

Hourly Data (May 2019)
Hourly Data Report for May 22, 2019
TIME
LST
Temp Definition
°C
Dew Point Definition
°C
Rel Hum Definition
%
Precip. Amount Definition
mm

Wind Dir Definition
10's deg

Wind Spd Definition
km/h
Visibility Definition
km
Stn Press Definition
kPa
Hmdx Definition


Wind Chill Definition


Weather Definition


00:00 4.3 3.1 92 0.0 34 12   100.31     LegendNANA
01:00 4.7 3.3 91 0.0 34 14   100.35     LegendNANA
02:00 5.1 3.4 89 0.0 36 14   100.42     LegendNANA
03:00 5.3 3.3 87 0.0 35 13   100.48     LegendNANA
04:00 5.4 3.4 87 0.0 35 9   100.58     LegendNANA
05:00 5.5 3.6 88 0.0 36 8   100.70     LegendNANA
06:00 5.8 3.9 88 0.0 1 11   100.85     LegendNANA
07:00 5.7 4.0 89 0.0 2 17   100.99     LegendNANA
08:00 5.2 3.6 90 0.0 5 15   101.15     LegendNANA
09:00 5.0 4.0 94 0.2 5 15   101.29     LegendNANA
10:00 6.2 4.1 86 0.0 5 11   101.39     LegendNANA
11:00 7.1 3.8 79 0.0 4 11   101.47     LegendNANA
12:00 7.6 3.9 78 0.0 5 13   101.56     LegendNANA
13:00 7.8 4.4 79 0.0 5 8   101.62     LegendNANA
14:00 8.2 4.4 77 0.0 8 10   101.63     LegendNANA
15:00 8.7 4.7 76 0.0 10 14   101.66     LegendNANA
16:00 8.4 4.3 75 0.0 9 11   101.69     LegendNANA
17:00 9.5 4.7 72 0.0 10 8   101.68     LegendNANA
18:00 9.8 4.7 71 0.0 11 4   101.67     LegendNANA
19:00 9.4 4.5 72 0.0 19 3   101.74     LegendNANA
20:00 7.8 4.4 79 0.0 36 2   101.77     LegendNANA
21:00 5.6 3.7 88 0.0 2 3   101.77     LegendNANA
22:00 4.5 3.0 90 0.0 13 2   101.76     LegendNANA
23:00 4.6 3.9 96 0.0 25 9   101.77     LegendNANA

Notes on Data Quality.

Legend

  • E = Estimated
  • M = Missing
  • NA = Not Available*
  • [empty] = Indicates an unobserved value
Date modified: